Location: Saint-Palais-sur-Mer
(45.6429°N, 1.0859°W)
Time: 23:03:31
(UTC+01:00)

Vanguard 1 - Pass Details

Date: 08 February 2026
Orbit: 653 x 3818 km, 34.2° (Epoch: 12 March)

Event Time Altitude Azimuth Distance (km) Brightness Sun altitude
Rises 20:04:33 0° 248° (WSW) 6,381 15.5 -18.5°
Reaches altitude 10° 20:08:16 10° 245° (WSW) 5,704 14.9 -19.2°
Maximum altitude 20:27:05 60° 172° (S) 4,064 13.0 -22.4°
Enters shadow 20:41:16 29° 109° (ESE) 5,372 13.2 -24.9°
